| time (UTC) | temp C | wind direction | speed KPH | gust KPH | rain 1hr cm | rain 24hr cm | rain mn cm | humidity % | barometer mb |
| 20260510104604 | 6 | 27 | 0.0 | 0.0 | 0.00 | 0.00 | 0.00 | 49 | 1020.8 |
| 20260510104059 | 6 | 27 | 0.0 | 0.0 | 0.00 | 0.00 | 0.00 | 49 | 1020.6 |
| 20260510103557 | 5 | 27 | 0.0 | 0.0 | 0.00 | 0.00 | 0.00 | 49 | 1020.8 |
| 20260510103057 | 5 | 27 | 0.0 | 0.0 | 0.00 | 0.00 | 0.00 | 50 | 1020.8 |
| 20260510102559 | 5 | 27 | 0.0 | 0.0 | 0.00 | 0.00 | 0.00 | 50 | 1020.8 |
| 20260510102057 | 5 | 27 | 0.0 | 0.0 | 0.00 | 0.00 | 0.00 | 51 | 1020.7 |
| 20260510101054 | 5 | 27 | 0.0 | 0.0 | 0.00 | 0.00 | 0.00 | 51 | 1020.7 |
| 20260510100559 | 5 | 27 | 0.0 | 0.0 | 0.00 | 0.00 | 0.00 | 51 | 1020.9 |
| 20260510100054 | 5 | 27 | 0.0 | 0.0 | 0.00 | 0.00 | 0.00 | 51 | 1020.8 |
| 20260510095554 | 5 | 27 | 0.0 | 0.0 | 0.00 | 0.00 | 0.00 | 50 | 1020.7 |
| 20260510095052 | 5 | 27 | 0.0 | 0.0 | 0.00 | 0.00 | 0.00 | 49 | 1020.8 |
| 20260510094602 | 5 | 27 | 0.0 | 0.0 | 0.00 | 0.00 | 0.00 | 49 | 1020.7 |
| 20260510094054 | 5 | 27 | 0.0 | 0.0 | 0.00 | 0.00 | 0.00 | 50 | 1020.6 |
| 20260510093551 | 5 | 27 | 0.0 | 0.0 | 0.00 | 0.00 | 0.00 | 50 | 1020.6 |
| 20260510093111 | 6 | 27 | 0.0 | 0.0 | 0.00 | 0.00 | 0.00 | 49 | 1020.6 |
| 20260510092548 | 6 | 27 | 0.0 | 0.0 | 0.00 | 0.00 | 0.00 | 49 | 1020.4 |
| 20260510092046 | 6 | 27 | 0.0 | 0.0 | 0.00 | 0.00 | 0.00 | 48 | 1020.4 |
| 20260510091047 | 7 | 27 | 0.0 | 0.0 | 0.00 | 0.00 | 0.00 | 48 | 1020.4 |
| 20260510090544 | 7 | 27 | 0.0 | 0.0 | 0.00 | 0.00 | 0.00 | 46 | 1020.1 |
| 20260510090043 | 7 | 27 | 0.0 | 0.0 | 0.00 | 0.00 | 0.00 | 46 | 1020.3 |
| 20260510090013 | 7 | 27 | 0.0 | 0.0 | 0.00 | 0.00 | 0.00 | 45 | 1020.3 |
| 20260510085542 | 8 | 27 | 0.0 | 0.0 | 0.00 | 0.00 | 0.00 | 45 | 1020.3 |
| 20260510085041 | 8 | 27 | 0.0 | 0.0 | 0.00 | 0.00 | 0.00 | 45 | 1020.2 |
| 20260510084541 | 8 | 27 | 0.0 | 0.0 | 0.00 | 0.00 | 0.00 | 45 | 1020.1 |
| 20260510084044 | 8 | 27 | 0.0 | 0.0 | 0.00 | 0.00 | 0.00 | 45 | 1020.0 |
| 20260510083544 | 8 | 27 | 0.0 | 0.0 | 0.00 | 0.00 | 0.00 | 44 | 1019.9 |
| 20260510083042 | 8 | 27 | 0.0 | 0.0 | 0.00 | 0.00 | 0.00 | 44 | 1020.0 |
| 20260510082539 | 8 | 27 | 0.0 | 0.0 | 0.00 | 0.00 | 0.00 | 44 | 1020.1 |
| 20260510082039 | 8 | 27 | 0.0 | 0.0 | 0.00 | 0.00 | 0.00 | 44 | 1020.1 |
| 20260510081039 | 8 | 27 | 0.0 | 0.0 | 0.00 | 0.00 | 0.00 | 46 | 1020.2 |
| 20260510080538 | 8 | 27 | 0.0 | 0.0 | 0.00 | 0.00 | 0.00 | 44 | 1020.2 |
| 20260510080038 | 8 | 27 | 0.0 | 0.0 | 0.00 | 0.00 | 0.00 | 44 | 1020.0 |
| 20260510075537 | 8 | 27 | 0.0 | 0.0 | 0.00 | 0.00 | 0.00 | 43 | 1020.0 |
| 20260510075041 | 8 | 27 | 0.0 | 0.0 | 0.00 | 0.00 | 0.00 | 43 | 1020.1 |
| 20260510074537 | 8 | 27 | 0.0 | 0.0 | 0.00 | 0.00 | 0.00 | 45 | 1020.1 |
| 20260510074037 | 8 | 27 | 0.0 | 0.0 | 0.00 | 0.00 | 0.00 | 45 | 1020.1 |
| 20260510073538 | 8 | 27 | 0.0 | 0.0 | 0.00 | 0.00 | 0.00 | 44 | 1020.2 |
| 20260510073044 | 8 | 27 | 0.0 | 3.2 | 0.00 | 0.00 | 0.00 | 45 | 1020.2 |
| 20260510072535 | 8 | 27 | 1.6 | 3.2 | 0.00 | 0.00 | 0.00 | 45 | 1020.0 |
| 20260510072034 | 8 | 27 | 0.0 | 0.0 | 0.00 | 0.00 | 0.00 | 45 | 1020.0 |
| 20260510071035 | 8 | 27 | 1.6 | 3.2 | 0.00 | 0.00 | 0.00 | 44 | 1020.0 |
| 20260510070535 | 8 | 27 | 0.0 | 1.6 | 0.00 | 0.00 | 0.00 | 43 | 1019.9 |
| 20260510070035 | 8 | 27 | 0.0 | 1.6 | 0.00 | 0.00 | 0.00 | 44 | 1019.9 |
| 20260510065534 | 8 | 27 | 0.0 | 0.0 | 0.00 | 0.00 | 0.00 | 43 | 1020.0 |
| 20260510065034 | 9 | 27 | 0.0 | 3.2 | 0.00 | 0.00 | 0.00 | 43 | 1020.0 |
| 20260510064533 | 9 | 27 | 0.0 | 4.8 | 0.00 | 0.00 | 0.00 | 43 | 1020.0 |
| 20260510064032 | 9 | 27 | 0.0 | 4.8 | 0.00 | 0.00 | 0.00 | 43 | 1020.1 |
| 20260510063530 | 9 | 27 | 1.6 | 4.8 | 0.00 | 0.00 | 0.00 | 42 | 1020.1 |
| 20260510063031 | 10 | 27 | 0.0 | 6.4 | 0.00 | 0.00 | 0.00 | 42 | 1019.9 |
| 20260510062530 | 10 | 27 | 0.0 | 3.2 | 0.00 | 0.00 | 0.00 | 42 | 1019.8 |
| 20260510062029 | 10 | 27 | 0.0 | 4.8 | 0.00 | 0.00 | 0.00 | 43 | 1019.9 |
| 20260510061026 | 9 | 20 | 0.0 | 4.8 | 0.00 | 0.00 | 0.00 | 43 | 1019.9 |
| 20260510060526 | 9 | 19 | 1.6 | 4.8 | 0.00 | 0.00 | 0.00 | 43 | 1019.8 |
| 20260510060026 | 9 | 19 | 1.6 | 4.8 | 0.00 | 0.00 | 0.00 | 44 | 1019.6 |
| 20260510055525 | 9 | 19 | 1.6 | 6.4 | 0.00 | 0.00 | 0.00 | 44 | 1019.5 |
| 20260510055026 | 9 | 19 | 3.2 | 6.4 | 0.00 | 0.00 | 0.00 | 44 | 1019.6 |
| 20260510054525 | 8 | 34 | 3.2 | 6.4 | 0.00 | 0.00 | 0.00 | 45 | 1019.5 |
| 20260510054024 | 8 | 34 | 0.0 | 3.2 | 0.00 | 0.00 | 0.00 | 47 | 1019.4 |
| 20260510053523 | 8 | 34 | 0.0 | 1.6 | 0.00 | 0.00 | 0.00 | 48 | 1019.3 |
| 20260510053044 | 8 | 34 | 0.0 | 4.8 | 0.00 | 0.00 | 0.00 | 47 | 1019.2 |
| 20260510052525 | 8 | 34 | 0.0 | 4.8 | 0.00 | 0.00 | 0.00 | 47 | 1019.1 |
| 20260510052022 | 8 | 34 | 1.6 | 4.8 | 0.00 | 0.00 | 0.00 | 47 | 1018.9 |
| 20260510051520 | 7 | 34 | 0.0 | 0.0 | 0.00 | 0.00 | 0.00 | 49 | 1018.6 |
| 20260510051021 | 7 | 34 | 0.0 | 0.0 | 0.00 | 0.00 | 0.00 | 49 | 1018.5 |
| 20260510050519 | 7 | 34 | 0.0 | 0.0 | 0.00 | 0.00 | 0.00 | 50 | 1018.6 |
| 20260510050019 | 7 | 34 | 0.0 | 0.0 | 0.00 | 0.00 | 0.00 | 50 | 1018.5 |
| 20260510045520 | 7 | 34 | 0.0 | 0.0 | 0.00 | 0.00 | 0.00 | 50 | 1018.5 |
| 20260510045020 | 7 | 34 | 0.0 | 0.0 | 0.00 | 0.00 | 0.00 | 48 | 1018.3 |
| 20260510044022 | 8 | 34 | 0.0 | 0.0 | 0.00 | 0.00 | 0.00 | 49 | 1018.3 |
| 20260510043521 | 8 | 34 | 0.0 | 0.0 | 0.00 | 0.00 | 0.00 | 49 | 1018.2 |
| 20260510043036 | 8 | 34 | 0.0 | 3.2 | 0.00 | 0.00 | 0.00 | 48 | 1018.2 |
| 20260510042521 | 8 | 34 | 0.0 | 4.8 | 0.00 | 0.00 | 0.00 | 47 | 1018.2 |
| 20260510042021 | 8 | 34 | 1.6 | 4.8 | 0.00 | 0.00 | 0.00 | 46 | 1018.1 |
| 20260510041525 | 8 | 34 | 0.0 | 3.2 | 0.00 | 0.00 | 0.00 | 47 | 1018.1 |
| 20260510041020 | 8 | 34 | 0.0 | 3.2 | 0.00 | 0.00 | 0.00 | 47 | 1018.1 |
| 20260510040519 | 8 | 34 | 0.0 | 0.0 | 0.00 | 0.00 | 0.00 | 48 | 1018.1 |
| 20260510040033 | 8 | 34 | 0.0 | 0.0 | 0.00 | 0.00 | 0.00 | 48 | 1018.1 |
| 20260510035519 | 8 | 34 | 0.0 | 0.0 | 0.00 | 0.00 | 0.00 | 48 | 1017.9 |
| 20260510035018 | 8 | 34 | 0.0 | 0.0 | 0.00 | 0.00 | 0.00 | 48 | 1017.9 |
| 20260510034017 | 8 | 34 | 0.0 | 1.6 | 0.00 | 0.00 | 0.00 | 47 | 1017.8 |
| 20260510033517 | 8 | 34 | 0.0 | 0.0 | 0.00 | 0.00 | 0.00 | 46 | 1017.7 |
| 20260510033015 | 8 | 34 | 0.0 | 3.2 | 0.00 | 0.00 | 0.00 | 47 | 1017.7 |
| 20260510032515 | 8 | 34 | 0.0 | 3.2 | 0.00 | 0.00 | 0.00 | 46 | 1017.6 |
| 20260510032018 | 9 | 34 | 1.6 | 3.2 | 0.00 | 0.00 | 0.00 | 46 | 1017.5 |
| 20260510031518 | 9 | 34 | 1.6 | 4.8 | 0.00 | 0.00 | 0.00 | 45 | 1017.5 |
| 20260510031014 | 9 | 36 | 0.0 | 4.8 | 0.00 | 0.00 | 0.00 | 45 | 1017.3 |
| 20260510030512 | 9 | 40 | 0.0 | 0.0 | 0.00 | 0.00 | 0.00 | 45 | 1017.3 |
| 20260510030012 | 10 | 40 | 0.0 | 0.0 | 0.00 | 0.00 | 0.00 | 44 | 1017.2 |
| 20260510025512 | 10 | 40 | 0.0 | 0.0 | 0.00 | 0.00 | 0.00 | 44 | 1017.2 |
| 20260510025012 | 10 | 40 | 0.0 | 0.0 | 0.00 | 0.00 | 0.00 | 44 | 1017.1 |
| 20260510024019 | 11 | 40 | 0.0 | 0.0 | 0.00 | 0.00 | 0.00 | 42 | 1017.0 |
| 20260510023511 | 11 | 40 | 0.0 | 0.0 | 0.00 | 0.00 | 0.00 | 42 | 1016.9 |
| 20260510023011 | 11 | 41 | 0.0 | 3.2 | 0.00 | 0.00 | 0.00 | 41 | 1016.8 |
| 20260510022512 | 12 | 41 | 0.0 | 3.2 | 0.00 | 0.00 | 0.00 | 40 | 1016.7 |
| 20260510022012 | 12 | 41 | 1.6 | 3.2 | 0.00 | 0.00 | 0.00 | 39 | 1016.8 |
| 20260510021522 | 13 | 41 | 1.6 | 4.8 | 0.00 | 0.00 | 0.00 | 38 | 1016.6 |
| 20260510021010 | 13 | 41 | 1.6 | 12.9 | 0.00 | 0.00 | 0.00 | 38 | 1016.6 |
| 20260510020509 | 13 | 46 | 4.8 | 14.5 | 0.00 | 0.00 | 0.00 | 38 | 1016.5 |
| 20260510020009 | 14 | 360 | 3.2 | 6.4 | 0.00 | 0.00 | 0.00 | 38 | 1016.5 |
| 20260510015509 | 15 | 360 | 0.0 | 3.2 | 0.00 | 0.00 | 0.00 | 38 | 1016.3 |
| 20260510015008 | 15 | 360 | 0.0 | 4.8 | 0.00 | 0.00 | 0.00 | 37 | 1016.2 |
| 20260510014009 | 16 | 360 | 3.2 | 6.4 | 0.00 | 0.00 | 0.00 | 36 | 1015.9 |
| 20260510013511 | 16 | 360 | 3.2 | 6.4 | 0.00 | 0.00 | 0.00 | 36 | 1016.1 |
| 20260510013010 | 16 | 17 | 3.2 | 6.4 | 0.00 | 0.00 | 0.00 | 36 | 1016.0 |
| 20260510012508 | 16 | 326 | 1.6 | 6.4 | 0.00 | 0.00 | 0.00 | 36 | 1015.9 |
| 20260510012008 | 16 | 308 | 1.6 | 6.4 | 0.00 | 0.00 | 0.00 | 36 | 1015.9 |
| 20260510011508 | 16 | 305 | 3.2 | 12.9 | 0.00 | 0.00 | 0.00 | 36 | 1016.1 |
| 20260510011007 | 17 | 308 | 4.8 | 12.9 | 0.00 | 0.00 | 0.00 | 35 | 1015.8 |
| 20260510010507 | 17 | 311 | 4.8 | 14.5 | 0.00 | 0.00 | 0.00 | 34 | 1016.0 |
| 20260510010008 | 17 | 315 | 3.2 | 14.5 | 0.00 | 0.00 | 0.00 | 34 | 1015.8 |
| 20260510005509 | 17 | 318 | 1.6 | 9.7 | 0.00 | 0.00 | 0.00 | 34 | 1015.8 |
| 20260510005008 | 18 | 355 | 3.2 | 14.5 | 0.00 | 0.00 | 0.00 | 33 | 1015.9 |
| 20260510004007 | 18 | 308 | 6.4 | 17.7 | 0.00 | 0.00 | 0.00 | 33 | 1015.7 |
| 20260510003506 | 18 | 333 | 8.0 | 14.5 | 0.00 | 0.00 | 0.00 | 32 | 1015.6 |
| 20260510003006 | 18 | 305 | 4.8 | 12.9 | 0.00 | 0.00 | 0.00 | 33 | 1015.7 |
| 20260510002506 | 18 | 325 | 4.8 | 14.5 | 0.00 | 0.00 | 0.00 | 33 | 1015.5 |
| 20260510002008 | 18 | 331 | 6.4 | 14.5 | 0.00 | 0.00 | 0.00 | 34 | 1015.5 |
| 20260510001508 | 18 | 283 | 4.8 | 12.9 | 0.00 | 0.00 | 0.00 | 34 | 1015.5 |
| 20260510001005 | 17 | 301 | 3.2 | 12.9 | 0.00 | 0.00 | 0.00 | 34 | 1015.4 |
| 20260510000505 | 17 | 315 | 3.2 | 14.5 | 0.00 | 0.00 | 0.00 | 33 | 1015.5 |
| 20260510000005 | 18 | 318 | 6.4 | 14.5 | 0.00 | 0.00 | 0.00 | 33 | 1015.6 |
| 20260509235505 | 18 | 317 | 6.4 | 17.7 | 0.00 | 0.00 | 0.00 | 33 | 1015.4 |
| 20260509235005 | 18 | 322 | 11.3 | 20.9 | 0.00 | 0.00 | 0.00 | 32 | 1015.4 |
| 20260509234002 | 18 | 298 | 9.7 | 19.3 | 0.00 | 0.00 | 0.00 | 32 | 1015.3 |
| 20260509233501 | 18 | 268 | 6.4 | 16.1 | 0.00 | 0.00 | 0.00 | 32 | 1015.3 |
| 20260509233001 | 18 | 273 | 8.0 | 17.7 | 0.00 | 0.00 | 0.00 | 32 | 1015.5 |
| 20260509232501 | 18 | 317 | 8.0 | 17.7 | 0.00 | 0.00 | 0.00 | 32 | 1015.3 |
| 20260509232000 | 18 | 286 | 6.4 | 16.1 | 0.00 | 0.00 | 0.00 | 33 | 1015.3 |
| 20260509231502 | 18 | 12 | 3.2 | 14.5 | 0.00 | 0.00 | 0.00 | 33 | 1015.4 |
| 20260509231100 | 18 | 327 | 6.4 | 14.5 | 0.00 | 0.00 | 0.00 | 33 | 1015.4 |
| 20260509230603 | 18 | 317 | 4.8 | 14.5 | 0.00 | 0.00 | 0.00 | 33 | 1015.4 |
| 20260509230100 | 18 | 19 | 6.4 | 17.7 | 0.00 | 0.00 | 0.00 | 33 | 1015.5 |
| 20260509225602 | 18 | 338 | 4.8 | 17.7 | 0.00 | 0.00 | 0.00 | 33 | 1015.3 |
| 20260509225059 | 18 | 346 | 9.7 | 17.7 | 0.00 | 0.00 | 0.00 | 34 | 1015.2 |
| 20260509224100 | 18 | 360 | 6.4 | 16.1 | 0.00 | 0.00 | 0.00 | 33 | 1015.4 |
| 20260509223603 | 18 | 9 | 4.8 | 17.7 | 0.00 | 0.00 | 0.00 | 33 | 1015.4 |
| 20260509223103 | 18 | 303 | 8.0 | 17.7 | 0.00 | 0.00 | 0.00 | 33 | 1015.4 |
| 20260509222605 | 18 | 5 | 8.0 | 16.1 | 0.00 | 0.00 | 0.00 | 32 | 1015.3 |
| 20260509222059 | 18 | 19 | 8.0 | 16.1 | 0.00 | 0.00 | 0.00 | 32 | 1015.3 |
| 20260509221600 | 18 | 300 | 3.2 | 14.5 | 0.00 | 0.00 | 0.00 | 32 | 1015.3 |
| 20260509221100 | 18 | 272 | 6.4 | 22.5 | 0.00 | 0.00 | 0.00 | 32 | 1015.4 |
| 20260509220601 | 18 | 320 | 9.7 | 22.5 | 0.00 | 0.00 | 0.00 | 32 | 1015.3 |
| 20260509215559 | 18 | 321 | 4.8 | 14.5 | 0.00 | 0.00 | 0.00 | 33 | 1015.3 |
| 20260509215059 | 18 | 28 | 4.8 | 16.1 | 0.00 | 0.00 | 0.00 | 32 | 1015.3 |
| 20260509214100 | 18 | 344 | 4.8 | 20.9 | 0.00 | 0.00 | 0.00 | 33 | 1015.4 |
| 20260509213559 | 18 | 339 | 8.0 | 20.9 | 0.00 | 0.00 | 0.00 | 33 | 1015.6 |
| 20260509213103 | 18 | 318 | 6.4 | 19.3 | 0.00 | 0.00 | 0.00 | 34 | 1015.6 |
| 20260509212559 | 18 | 308 | 6.4 | 16.1 | 0.00 | 0.00 | 0.00 | 34 | 1015.6 |
| 20260509212059 | 18 | 24 | 6.4 | 17.7 | 0.00 | 0.00 | 0.00 | 34 | 1015.6 |
| 20260509211559 | 18 | 331 | 11.3 | 24.1 | 0.00 | 0.00 | 0.00 | 34 | 1015.6 |
| 20260509211058 | 18 | 294 | 8.0 | 19.3 | 0.00 | 0.00 | 0.00 | 35 | 1015.4 |
| 20260509210558 | 18 | 330 | 6.4 | 17.7 | 0.00 | 0.00 | 0.00 | 35 | 1015.5 |
| 20260509210107 | 18 | 316 | 6.4 | 19.3 | 0.00 | 0.00 | 0.00 | 36 | 1015.6 |
| 20260509205600 | 18 | 271 | 11.3 | 24.1 | 0.00 | 0.00 | 0.00 | 34 | 1015.6 |
| 20260509205057 | 18 | 310 | 9.7 | 24.1 | 0.00 | 0.00 | 0.00 | 36 | 1015.6 |
| 20260509204055 | 18 | 360 | 6.4 | 19.3 | 0.00 | 0.00 | 0.00 | 36 | 1015.6 |
| 20260509203558 | 18 | 311 | 6.4 | 20.9 | 0.00 | 0.00 | 0.00 | 38 | 1015.6 |
| 20260509203102 | 17 | 279 | 8.0 | 20.9 | 0.00 | 0.00 | 0.00 | 38 | 1015.5 |
| 20260509202552 | 17 | 278 | 6.4 | 20.9 | 0.00 | 0.00 | 0.00 | 39 | 1015.6 |
| 20260509202051 | 17 | 5 | 8.0 | 19.3 | 0.00 | 0.00 | 0.00 | 40 | 1015.6 |
| 20260509201551 | 16 | 24 | 3.2 | 16.1 | 0.00 | 0.00 | 0.00 | 43 | 1015.8 |
| 20260509201052 | 16 | 287 | 8.0 | 16.1 | 0.00 | 0.00 | 0.00 | 41 | 1015.7 |
| 20260509200551 | 16 | 296 | 6.4 | 20.9 | 0.00 | 0.00 | 0.00 | 40 | 1015.6 |
| 20260509200051 | 17 | 321 | 9.7 | 20.9 | 0.00 | 0.00 | 0.00 | 39 | 1015.8 |
| 20260509195550 | 16 | 13 | 6.4 | 19.3 | 0.00 | 0.00 | 0.00 | 40 | 1015.8 |
| 20260509195048 | 16 | 329 | 6.4 | 19.3 | 0.00 | 0.00 | 0.00 | 41 | 1015.8 |
| 20260509194053 | 15 | 355 | 8.0 | 17.7 | 0.00 | 0.00 | 0.00 | 42 | 1015.7 |
| 20260509193553 | 15 | 306 | 8.0 | 19.3 | 0.00 | 0.00 | 0.00 | 40 | 1015.7 |
| 20260509193057 | 16 | 343 | 8.0 | 19.3 | 0.00 | 0.00 | 0.00 | 40 | 1015.7 |
| 20260509192555 | 16 | 288 | 6.4 | 19.3 | 0.00 | 0.00 | 0.00 | 40 | 1015.7 |
| 20260509192053 | 16 | 343 | 4.8 | 19.3 | 0.00 | 0.00 | 0.00 | 41 | 1015.7 |
| 20260509191603 | 15 | 22 | 8.0 | 17.7 | 0.00 | 0.00 | 0.00 | 40 | 1015.5 |
| 20260509191055 | 16 | 33 | 6.4 | 19.3 | 0.00 | 0.00 | 0.00 | 40 | 1015.7 |
| 20260509190553 | 15 | 9 | 8.0 | 17.7 | 0.00 | 0.00 | 0.00 | 41 | 1015.6 |
| 20260509190054 | 15 | 51 | 4.8 | 14.5 | 0.00 | 0.00 | 0.00 | 41 | 1015.6 |
| 20260509185551 | 16 | 355 | 4.8 | 16.1 | 0.00 | 0.00 | 0.00 | 40 | 1015.8 |
| 20260509185050 | 16 | 360 | 6.4 | 16.1 | 0.00 | 0.00 | 0.00 | 40 | 1015.8 |
| 20260509184651 | 15 | 5 | 4.8 | 19.3 | 0.00 | 0.00 | 0.00 | 41 | 1015.7 |
| 20260509184045 | 15 | 315 | 4.8 | 19.3 | 0.00 | 0.00 | 0.00 | 40 | 1015.7 |
| 20260509183546 | 16 | 350 | 11.3 | 19.3 | 0.00 | 0.00 | 0.00 | 39 | 1015.7 |
| 20260509183052 | 16 | 5 | 6.4 | 20.9 | 0.00 | 0.00 | 0.00 | 39 | 1015.7 |
| 20260509182547 | 16 | 9 | 11.3 | 20.9 | 0.00 | 0.00 | 0.00 | 40 | 1015.6 |
| 20260509182044 | 15 | 28 | 6.4 | 17.7 | 0.00 | 0.00 | 0.00 | 40 | 1015.6 |
| 20260509181543 | 15 | 346 | 6.4 | 19.3 | 0.00 | 0.00 | 0.00 | 40 | 1015.6 |
| 20260509181043 | 15 | 17 | 9.7 | 19.3 | 0.00 | 0.00 | 0.00 | 40 | 1015.7 |
| 20260509180543 | 15 | 350 | 4.8 | 12.9 | 0.00 | 0.00 | 0.00 | 42 | 1015.5 |
| 20260509180042 | 15 | 10 | 6.4 | 19.3 | 0.00 | 0.00 | 0.00 | 41 | 1015.6 |
| 20260509175542 | 15 | 261 | 8.0 | 20.9 | 0.00 | 0.00 | 0.00 | 40 | 1015.7 |
| 20260509175043 | 15 | 28 | 6.4 | 22.5 | 0.00 | 0.00 | 0.00 | 41 | 1015.6 |
| 20260509174045 | 15 | 321 | 4.8 | 17.7 | 0.00 | 0.00 | 0.00 | 41 | 1015.6 |
| 20260509173541 | 15 | 28 | 6.4 | 17.7 | 0.00 | 0.00 | 0.00 | 41 | 1015.5 |
| 20260509173048 | 15 | 294 | 4.8 | 17.7 | 0.00 | 0.00 | 0.00 | 41 | 1015.6 |
| 20260509172543 | 14 | 360 | 9.7 | 17.7 | 0.00 | 0.00 | 0.00 | 42 | 1015.5 |
| 20260509172038 | 14 | 276 | 6.4 | 19.3 | 0.00 | 0.00 | 0.00 | 43 | 1015.3 |
| 20260509171538 | 14 | 338 | 4.8 | 17.7 | 0.00 | 0.00 | 0.00 | 42 | 1015.4 |
| 20260509171036 | 13 | 23 | 6.4 | 22.5 | 0.00 | 0.00 | 0.00 | 44 | 1015.2 |
| 20260509170537 | 13 | 51 | 9.7 | 22.5 | 0.00 | 0.00 | 0.00 | 42 | 1015.4 |
| 20260509170037 | 13 | 24 | 9.7 | 19.3 | 0.00 | 0.00 | 0.00 | 43 | 1015.5 |
| 20260509165536 | 13 | 37 | 6.4 | 17.7 | 0.00 | 0.00 | 0.00 | 42 | 1015.4 |
| 20260509165040 | 13 | 15 | 6.4 | 14.5 | 0.00 | 0.00 | 0.00 | 43 | 1015.5 |
| 20260509164035 | 13 | 342 | 6.4 | 16.1 | 0.00 | 0.00 | 0.00 | 43 | 1015.5 |
| 20260509163533 | 13 | 327 | 4.8 | 19.3 | 0.00 | 0.00 | 0.00 | 43 | 1015.3 |
| 20260509163039 | 13 | 55 | 8.0 | 19.3 | 0.00 | 0.00 | 0.00 | 43 | 1015.4 |
| 20260509162531 | 13 | 62 | 8.0 | 19.3 | 0.00 | 0.00 | 0.00 | 43 | 1015.3 |
| 20260509162030 | 13 | 57 | 6.4 | 19.3 | 0.00 | 0.00 | 0.00 | 43 | 1015.3 |
| 20260509161529 | 13 | 11 | 6.4 | 16.1 | 0.00 | 0.00 | 0.00 | 44 | 1015.2 |
| 20260509161032 | 12 | 29 | 4.8 | 14.5 | 0.00 | 0.00 | 0.00 | 46 | 1015.3 |
| 20260509160526 | 12 | 355 | 6.4 | 14.5 | 0.00 | 0.00 | 0.00 | 47 | 1015.3 |
| 20260509160026 | 12 | 355 | 3.2 | 19.3 | 0.00 | 0.00 | 0.00 | 47 | 1015.3 |
| 20260509155525 | 12 | 60 | 11.3 | 19.3 | 0.00 | 0.00 | 0.00 | 47 | 1015.3 |
| 20260509155023 | 12 | 24 | 4.8 | 14.5 | 0.00 | 0.00 | 0.00 | 48 | 1015.4 |
| 20260509154027 | 12 | 34 | 8.0 | 16.1 | 0.00 | 0.00 | 0.00 | 48 | 1015.3 |
| 20260509153530 | 12 | 34 | 8.0 | 16.1 | 0.00 | 0.00 | 0.00 | 48 | 1015.1 |
| 20260509153034 | 11 | 338 | 6.4 | 16.1 | 0.00 | 0.00 | 0.00 | 49 | 1015.1 |
| 20260509152524 | 11 | 11 | 6.4 | 14.5 | 0.00 | 0.00 | 0.00 | 50 | 1015.1 |
| 20260509152024 | 11 | 22 | 6.4 | 22.5 | 0.00 | 0.00 | 0.00 | 49 | 1015.1 |
| 20260509151523 | 11 | 292 | 4.8 | 22.5 | 0.00 | 0.00 | 0.00 | 51 | 1015.2 |
| 20260509151021 | 11 | 338 | 4.8 | 9.7 | 0.00 | 0.00 | 0.00 | 55 | 1015.1 |
| 20260509150523 | 11 | 31 | 3.2 | 9.7 | 0.00 | 0.00 | 0.00 | 54 | 1015.1 |
| 20260509150021 | 11 | 10 | 0.0 | 8.0 | 0.00 | 0.00 | 0.00 | 56 | 1015.1 |
| 20260509145520 | 10 | 63 | 0.0 | 6.4 | 0.00 | 0.00 | 0.00 | 59 | 1015.2 |
| 20260509145019 | 10 | 285 | 0.0 | 4.8 | 0.00 | 0.00 | 0.00 | 60 | 1015.1 |
| 20260509144018 | 9 | 269 | 0.0 | 4.8 | 0.00 | 0.00 | 0.00 | 64 | 1015.1 |
| 20260509143517 | 9 | 269 | 3.2 | 4.8 | 0.00 | 0.00 | 0.00 | 64 | 1015.0 |
| 20260509143017 | 9 | 282 | 1.6 | 6.4 | 0.00 | 0.00 | 0.00 | 64 | 1015.1 |
| 20260509142520 | 9 | 304 | 1.6 | 6.4 | 0.00 | 0.00 | 0.00 | 65 | 1015.0 |
| 20260509142016 | 8 | 9 | 1.6 | 6.4 | 0.00 | 0.00 | 0.00 | 65 | 1014.9 |
| 20260509141518 | 8 | 5 | 0.0 | 6.4 | 0.00 | 0.00 | 0.00 | 65 | 1014.9 |
| 20260509141014 | 8 | 38 | 1.6 | 6.4 | 0.00 | 0.00 | 0.00 | 65 | 1014.9 |
| 20260509140515 | 8 | 38 | 0.0 | 6.4 | 0.00 | 0.00 | 0.00 | 66 | 1014.8 |
| 20260509140015 | 8 | 23 | 3.2 | 6.4 | 0.00 | 0.00 | 0.00 | 67 | 1014.8 |
| 20260509135514 | 8 | 5 | 1.6 | 6.4 | 0.00 | 0.00 | 0.00 | 67 | 1014.8 |
| 20260509135014 | 8 | 30 | 1.6 | 6.4 | 0.00 | 0.00 | 0.00 | 68 | 1014.7 |
| 20260509134012 | 7 | 50 | 4.8 | 8.0 | 0.00 | 0.00 | 0.00 | 70 | 1014.5 |
| 20260509133512 | 7 | 5 | 4.8 | 8.0 | 0.00 | 0.00 | 0.00 | 71 | 1014.5 |
| 20260509133012 | 7 | 42 | 4.8 | 8.0 | 0.00 | 0.00 | 0.00 | 72 | 1014.4 |
| 20260509132512 | 7 | 19 | 3.2 | 8.0 | 0.00 | 0.00 | 0.00 | 72 | 1014.4 |
| 20260509132012 | 7 | 32 | 1.6 | 8.0 | 0.00 | 0.00 | 0.00 | 73 | 1014.4 |
| 20260509131514 | 6 | 33 | 1.6 | 8.0 | 0.00 | 0.00 | 0.00 | 74 | 1014.3 |
| 20260509131010 | 6 | 49 | 3.2 | 8.0 | 0.00 | 0.00 | 0.00 | 74 | 1014.3 |
| 20260509130511 | 6 | 13 | 4.8 | 8.0 | 0.00 | 0.00 | 0.00 | 75 | 1014.3 |
| 20260509130024 | 6 | 5 | 4.8 | 8.0 | 0.00 | 0.00 | 0.00 | 76 | 1014.2 |
| 20260509125509 | 6 | 22 | 3.2 | 6.4 | 0.00 | 0.00 | 0.00 | 77 | 1014.1 |
| 20260509125009 | 5 | 15 | 0.0 | 3.2 | 0.00 | 0.00 | 0.00 | 79 | 1014.1 |
| 20260509124010 | 5 | 15 | 0.0 | 1.6 | 0.00 | 0.00 | 0.00 | 80 | 1013.9 |
| 20260509123509 | 4 | 15 | 0.0 | 1.6 | 0.00 | 0.00 | 0.00 | 80 | 1013.9 |
| 20260509123009 | 4 | 15 | 0.0 | 1.6 | 0.00 | 0.00 | 0.00 | 81 | 1013.9 |
| 20260509122509 | 4 | 13 | 0.0 | 0.0 | 0.00 | 0.00 | 0.00 | 80 | 1013.7 |
| 20260509122008 | 3 | 13 | 0.0 | 0.0 | 0.00 | 0.00 | 0.00 | 81 | 1013.5 |
| 20260509121511 | 3 | 13 | 0.0 | 0.0 | 0.00 | 0.00 | 0.00 | 81 | 1013.5 |
| 20260509121007 | 3 | 13 | 0.0 | 0.0 | 0.00 | 0.00 | 0.00 | 82 | 1013.5 |
| 20260509120507 | 3 | 13 | 0.0 | 0.0 | 0.00 | 0.00 | 0.00 | 82 | 1013.3 |
| 20260509120007 | 3 | 13 | 0.0 | 0.0 | 0.00 | 0.00 | 0.00 | 83 | 1013.3 |
| 20260509115505 | 3 | 13 | 0.0 | 0.0 | 0.00 | 0.00 | 0.00 | 83 | 1013.1 |
| 20260509115005 | 2 | 14 | 0.0 | 0.0 | 0.00 | 0.00 | 0.00 | 83 | 1013.2 |
| 20260509114100 | 2 | 14 | 0.0 | 0.0 | 0.00 | 0.00 | 0.00 | 82 | 1012.9 |
| 20260509113603 | 2 | 14 | 0.0 | 0.0 | 0.00 | 0.00 | 0.00 | 81 | 1012.9 |
| 20260509113101 | 3 | 14 | 0.0 | 0.0 | 0.00 | 0.00 | 0.00 | 81 | 1012.9 |
| 20260509112557 | 3 | 14 | 0.0 | 0.0 | 0.00 | 0.00 | 0.00 | 81 | 1012.8 |
| 20260509112056 | 3 | 16 | 0.0 | 0.0 | 0.00 | 0.00 | 0.00 | 81 | 1012.7 |
| 20260509111556 | 3 | 16 | 0.0 | 0.0 | 0.00 | 0.00 | 0.00 | 82 | 1012.7 |
| 20260509111054 | 3 | 17 | 0.0 | 0.0 | 0.00 | 0.00 | 0.00 | 82 | 1012.5 |
| 20260509110558 | 3 | 17 | 0.0 | 3.2 | 0.00 | 0.00 | 0.00 | 82 | 1012.4 |
| 20260509110056 | 3 | 17 | 0.0 | 3.2 | 0.00 | 0.00 | 0.00 | 82 | 1012.4 |
| 20260509105552 | 3 | 16 | 0.0 | 1.6 | 0.00 | 0.00 | 0.00 | 81 | 1012.3 |
| 20260509105051 | 3 | 16 | 0.0 | 1.6 | 0.00 | 0.00 | 0.00 | 81 | 1012.1 |